Simultaneous Nadir Overpasses (SNOs) Predictions

Prediction of SNOs near equator between AQUA and NPP Satellite Orbit:

Table of predicted SNOs near equator for the next 14.0 days since TLE Epoch: 11/7/2016
Index Date (AQUA) Time (AQUA) AQUA Lat,Lon Date (NPP) Time (NPP) NPP Lat,Lon Distance(km) Time Diff (sec)
1 11/07/2016 23:20:17 8.75,-147.56 11/07/2016 23:10:17 8.75,-147.56 0.15 600
2 11/08/2016 00:07:43 -1.75, 21.59 11/07/2016 23:58:57 -1.67, 21.36 27.51 526
3 11/08/2016 00:55:58 -2.86,-169.81 11/08/2016 00:48:28 -2.95,-170.32 57.42 450
4 11/08/2016 01:44:05 7.38, -1.18 11/08/2016 01:37:50 7.55, -1.95 86.86 375
5 11/10/2016 15:35:40 4.76, -30.83 11/10/2016 15:26:04 4.73, -30.89 8.21 576
6 11/10/2016 16:23:46 -0.18, 137.81 11/10/2016 16:15:26 -0.12, 137.47 38.22 500
7 11/10/2016 17:12:02 -4.37, -53.60 11/10/2016 17:04:57 -4.50, -54.20 68.04 425
8 11/10/2016 18:00:08 8.95, 115.04 11/10/2016 17:54:19 9.10, 114.17 97.21 349
9 11/13/2016 07:51:42 3.21, 85.39 11/13/2016 07:42:32 3.19, 85.22 18.89 550
10 11/13/2016 08:39:49 1.31,-105.99 11/13/2016 08:31:54 1.42,-106.42 49.08 475
11 11/13/2016 09:28:04 -5.92, 62.61 11/13/2016 09:21:25 -6.04, 61.91 78.76 399
12 11/15/2016 23:19:29 -6.21, 33.01 11/15/2016 23:09:29 -6.20, 33.02 1.20 600
13 11/16/2016 00:07:45 1.67,-158.40 11/15/2016 23:59:00 1.59,-158.66 29.89 525
14 11/16/2016 00:55:51 2.92, 10.23 11/16/2016 00:48:22 3.02, 9.70 59.87 449
15 11/16/2016 01:44:07 -7.46, 178.82 11/16/2016 01:37:53 -7.64, 178.03 89.20 374
16 11/18/2016 15:35:32 -4.68, 149.22 11/18/2016 15:25:58 -4.66, 149.13 10.66 574
17 11/18/2016 16:23:47 0.08, -42.18 11/18/2016 16:15:28 -0.01, -42.54 40.74 499
18 11/18/2016 17:11:54 4.45, 126.44 11/18/2016 17:04:51 4.56, 125.81 70.77 423
19 11/18/2016 18:00:10 -8.99, -64.96 11/18/2016 17:54:22 -9.17, -65.85 99.70 348
20 11/21/2016 07:09:37 29.96, 91.63 11/21/2016 06:59:37 30.74, 91.22 95.67 600
21 11/21/2016 07:51:34 -3.10, -94.56 11/21/2016 07:42:26 -3.06, -94.75 21.70 548
22 11/21/2016 08:39:50 -1.43, 74.03 11/21/2016 08:31:57 -1.54, 73.57 51.82 473
23 11/21/2016 09:27:56 6.03,-117.34 11/21/2016 09:21:19 6.16,-118.06 81.55 397




NCC Satellite Simultaneous Nadir Overpasses (SNOs) Prediction Service
